Showing default

ION SCV-013, 58300

Orbit data source: Space-Track

ION SCV-013, 58300 is a payload satellite owned by D-ORBIT (IT) in SSO that was launched on Sat, 11 Nov 2023 UTC via an FALCON 9 launch vehicle from the Air Force Western Test Range (AFWTR). Payload-class satellites include a variety of spacecraft equipped with specific instruments for various scientific and technological missions. These include communications satellites like Starlink; space stations such as the ISS; scientific satellites like the Hubble; Earth observation satellites from companies like Planet Labs, Umbra, and HawkEye 360; GPS; miniature CubeSats for education and research; and military/defense satellites.

Loading next visibility...
Identifier
58300, 2023-174AW
Orbit
SSO
Country
Flag of ITIT
Related business
Manufacturer
D-ORBIT
Mission
Operational Commercial Technology
Bus & Motor
ION-SC, PM200
Mass
220 kg wet, 150 kg dry
Launch date (UTC)
2023-11-11 (3 years ago)
Launch vehicle
FALCON 9
Launch site
Air Force Western Test Range (AFWTR)
Object type
Payload
Rocket body
Debris
Shape & HBR
Box, 0.2 m
Radar Cross Section
0.240 m², Large (>1 m²)

Expand to show TLE details & history
Last TLE update: 8 hours ago

TLE from 8 hours ago
0 ION SCV-013
1 58300U 23174AW  26236.89951677  .00001830  00000-0  11940-3 0  9994
2 58300  97.6096 291.0586 0097098 323.1965  36.2621 15.05373623151875
Epoch: 2026-08-24T21:35Z
TLE epoch observation values (Epoch: 2026-08-24T21:35:18.248Z)
Latitude
-0.00007°
Longitude
-5.94202°
Altitude
499.399 km
Speed
7.644 km/s
True Right ascension
19h 24m 14s
True Declination
0° 00' 00"
Sunlit
Object was in full shadow at epoch
Visualization orbit readout
Latitude
Unknown
Longitude
Unknown
Altitude
Unknown
Speed
Unknown
Apparent Right ascension
Unknown
Apparent Declination
Unknown
Sunlit
N/A
Visualization observer readout
Local Sidereal Time
21:12:34
Azimuth
Unknown
Elevation
Unknown
Doppler factor
Unknown
Orbital elements
Apogee altitude
614.598 km
Perigee altitude
480.108 km
Semi-major axis
6,925.49 km
Eccentricity
0.00971
Inclination
97.6096°
RAAN
291.0586°
Arg. of periapsis
323.1965°
True anomaly
36.9267°
Mean anomaly
36.2621°
Eccentric anomaly
36.59375°
Mean motion
3.76589 °/min
Orbital period
95.59 mins
BSTAR
0.0001194
Loading maneuver chart data...
Computing Atmospheric mass density...

Documentation

Showing up to 5 results
|